ASTRA 2F                
1 38778U 12051A   19260.84551442  .00000145  00000-0  00000+0 0  9992
2 38778   0.0806 240.1244 0004128 323.9140 125.0363  1.00270268 25578
GSAT-10                 
1 38779U 12051B   19261.14356976 -.00000169  00000-0  00000+0 0  9999
2 38779   0.0499 259.1340 0001800 236.9378 355.4088  1.00273589 25587
ARIANE 5 R/B            
1 38780U 12051C   19257.08366345  .00002095  00000-0  49308-3 0  9997
2 38780   6.2335 103.1049 7129874 248.8272  25.9013  2.47988667 61066
ARIANE 5 DEB [SYLDA]    
1 38781U 12051D   19261.08659282  .00060915  00000-0  27228-2 0  9999
2 38781   6.3969  31.0734 5444649  21.5908 354.5173  4.97529967106127